Weather History for Rifle, CO

Change the Weather History Date:

Thursday, June 9, 2011

  Actual Average Record
Temperature  
Mean Temperature 66 °F 64 °F  
Max Temperature 78 °F 83 °F 93 °F (1953)
Min Temperature 55 °F 45 °F 29 °F (1962)
Degree Days  
Heating Degree Days 0 3  
Month to date heating degree days 34  
Since 1 June heating degree days 34  
Since 1 July heating degree days 6600  
Cooling Degree Days 2 2  
Month to date cooling degree days 14  
Year to date cooling degree days 21  
Since 1 June cooling degree days 14  
Growing Degree Days 16 (Base 50)    
Moisture  
Dew Point 29 °F    
Average Humidity 27    
Maximum Humidity 45    
Minimum Humidity 11    
Precipitation  
Precipitation 0.00 in 0.04 in 0.20 in (1970)
Month to date precipitation 0.36  
Year to date precipitation 5.78  
Sea Level Pressure  
Sea Level Pressure 29.81 in    
Wind  
Wind Speed 10 mph (WNW)    
Max Wind Speed 24 mph    
Max Gust Speed 34 mph    
Visibility 10 miles    
Events      
T = Trace of Precipitation, MM = Missing Value Source: NWS Daily Summary

Daily Weather History Graph

Daily Weather History Graph

Search for Another Location

Airport:

Trip Planner

Search our weather history database for the weather conditions in past years. The results will help you decide how hot, cold, wet, or windy it might be!

Date:

Astronomy

Jun. 09, 2011 Rise Set
Actual Time 5:43 AM MDT 8:37 PM MDT
Civil Twilight 5:11 AM MDT 9:09 PM MDT
Nautical Twilight 4:30 AM MDT 9:50 PM MDT
Astronomical Twilight 3:43 AM MDT 10:37 PM MDT
Moon 2:01 PM MDT (6/9) 1:15 AM MDT (6/9)
Length of Visible Light 15h 58m
Length of Day
14h 53m
First Quarter, 58% of the Moon is Illuminated
Jun 9
First Quarter
Jun 15
Full
Jun 23
Last Quarter
Jul 1
New
Jul 8
First Quarter

Hourly Weather History & Observations

Time (MDT) Temp. Dew Point Humidity Pressure Visibility Wind Dir Wind Speed Gust Speed Precip Events Conditions
12:53 AM 61.0 °F 28.0 °F 29% 29.68 in 10.0 mi ESE 5.8 mph - N/A   Partly Cloudy
1:53 AM 57.0 °F 32.0 °F 39% 29.71 in 10.0 mi WNW 6.9 mph - N/A   Clear
2:53 AM 64.0 °F 24.1 °F 22% 29.70 in 10.0 mi NW 8.1 mph - N/A   Clear
3:53 AM 57.0 °F 27.0 °F 32% 29.73 in 10.0 mi Calm Calm - N/A   Clear
4:53 AM 57.9 °F 32.0 °F 37% 29.76 in 10.0 mi WNW 6.9 mph - N/A   Partly Cloudy
5:53 AM 55.9 °F 34.0 °F 44% 29.80 in 10.0 mi WNW 9.2 mph - N/A   Clear
6:53 AM 57.0 °F 36.0 °F 45% 29.83 in 10.0 mi NW 10.4 mph - N/A   Clear
7:53 AM 59.0 °F 36.0 °F 42% 29.85 in 10.0 mi West 5.8 mph - N/A   Clear
8:53 AM 62.1 °F 35.1 °F 37% 29.85 in 10.0 mi Calm Calm - N/A   Clear
9:53 AM 64.9 °F 35.1 °F 33% 29.84 in 10.0 mi Variable 3.5 mph - N/A   Clear
10:53 AM 69.1 °F 30.9 °F 24% 29.81 in 10.0 mi West 11.5 mph 17.3 mph N/A   Clear
11:53 AM 73.0 °F 28.0 °F 19% 29.80 in 10.0 mi West 24.2 mph 29.9 mph N/A   Clear
12:53 PM 75.9 °F 27.0 °F 16% 29.79 in 10.0 mi West 21.9 mph 28.8 mph N/A   Clear
1:53 PM 75.9 °F 27.0 °F 16% 29.79 in 10.0 mi West 24.2 mph 31.1 mph N/A   Clear
2:53 PM 77.0 °F 27.0 °F 16% 29.76 in 10.0 mi West 21.9 mph 32.2 mph N/A   Clear
3:53 PM 77.0 °F 27.0 °F 16% 29.77 in 10.0 mi West 23.0 mph 31.1 mph N/A   Clear
4:53 PM 78.1 °F 19.0 °F 11% 29.77 in 10.0 mi West 23.0 mph 34.5 mph N/A   Clear
5:53 PM 77.0 °F 21.9 °F 13% 29.78 in 10.0 mi West 19.6 mph 28.8 mph N/A   Clear
6:53 PM 75.0 °F 21.9 °F 14% 29.80 in 10.0 mi West 18.4 mph - N/A   Clear
7:53 PM 71.1 °F 21.9 °F 16% 29.82 in 10.0 mi West 13.8 mph 23.0 mph N/A   Clear
8:53 PM 68.0 °F 23.0 °F 18% 29.86 in 10.0 mi NW 15.0 mph 21.9 mph N/A   Clear
9:11 PM 64.4 °F 30.2 °F 28% 30.05 in 10.0 mi NNW 8.1 mph 17.3 mph N/A   Clear
9:53 PM 62.1 °F 32.0 °F 32% 29.92 in 10.0 mi WNW 4.6 mph - N/A   Clear
10:53 PM 60.1 °F 33.1 °F 36% 29.93 in 10.0 mi WNW 8.1 mph - N/A   Clear
11:53 PM 57.0 °F 34.0 °F 42% 29.95 in 10.0 mi NW 6.9 mph - N/A   Clear